星链-37523(STARLINK-37523)

导读

STARLINK-37523(NORAD编号69528)是美国SpaceX公司星链低轨互联网星座的组成卫星。该卫星于2025年6月3日随猎鹰9号火箭从佛罗里达州卡纳维拉尔角太空军基地发射,属于星链12-19任务,搭载直连蜂窝通信功能,是该批次23颗组网卫星之一。卫星总质量约297千克,运行在高度约550公里的近地轨道,轨道速度约7.6公里/秒,主要承担全球广域宽带互联网接入服务,截至2026年6月在轨运行状态稳定。 (全文共149字)

Basic Information
目录编号:
69528
目录名称:
STARLINK-37523
国际标识:
2026-133W
轨道中心:
EARTH
卫星名称:
星链-37523
卫星全名:
星链-37523(STARLINK-37523)
卫星状态:
在轨 (已飞行91 天)
发射日期:
2026-06-12 UTC
国别 :
美国 (US)
星等 :
--
This satellite is enrolled in the Space Conjunction Data Service (SCDS) and the current flight risk assessment level is: No High Risk
Orbit Information
数据来源 国际轨道数据 AOE轨道数据
星历时间 2026-09-11T19:37:29+0800
10小时前
查看轨道信息
2026-09-07T08:00:00+0800
4天前
查看轨道信息
半长轴 6840.781km 6840.9km
偏心率 0.0000923 0.0001505
轨道倾角 53.156° 53.157°
近地点辐角 29.535° 64.574°
升交点赤经 271.591° 292.556°
平近点角 330.570° 350.915°
近地点 462.012km 461.733km
远地点 463.276km 463.793km
周期 93.847分钟 93.849分钟
每日圈数 15.344201 15.3438
Detailed Information
固有亮度:
5
最大亮度:
2.5
卫星平台:
Starlink V1.0
覆盖范围:
全球
运营商:
太空探索技术公司
运营商所在国:
美国
制造商(研发单位):
太空探索技术公司
制造商所在国:
美国
使用方式:
暂无
Satellite Introduction
Starlink 计划是 SpaceX 推出的全球卫星互联网项目,通过发射低轨道卫星,为全球尤其是偏远地区提供高速、低延迟的互联网服务。自 2019 年起,Starlink 已部署数千颗卫星,旨在缩小全球数字鸿沟,推动互联网普及。该项目还为军事、航空等行业提供通信支持,带来广泛经济效益。
2D Orbit Map
3D Orbit Map
Orbit Altitude Analysis Chart
Orbit Inclination Analysis Chart
Orbit Comprehensive Analysis Chart
View Comprehensive Chart
Conjunction Data List
Event ID Objects TCA Miss Dist (km) Collision Risk Probability Collision Risk Index (CRI) Action
CDM_260914-041206-150906-952821
2026-09-14T
04:12:32+0000
0.514 km
远距离
1.24898E-4 高风险 0.77
CDM_260911-191006-932106-952822
OBJECT B (69321)
2026-09-11T
19:10:27+0000
0.762 km
远距离
4.59232E-5 中风险 0.68
CDM_260911-062606-569006-952821
2026-09-11T
06:26:31+0000
1.128 km
极远距离
1.069582E-5 中风险 0.56
CDM_260914-023806-150906-952821
2026-09-14T
02:38:45+0000
1.467 km
极远距离
4.428052E-6 低风险 0.48
CDM_260914-054606-150906-952821
2026-09-14T
05:46:20+0000
2.098 km
极远距离
1.628138E-6 低风险 0.39
CDM_260912-005704-941406-952822
2026-09-12T
00:57:20+0000
2.679 km
极远距离
1.393929E-6 低风险 0.38
Miss Distance Evolution Trend with All Objects
Collision Probability Evolution Trend with All Objects